Regional Weather Roundup
Issued by NWS Sterling, VA

Home | Current Version | Previous Version | Graphics & Text | Print | Product List | Glossary On
Versions: 1 2 3 4 5 6 7 8 9 10 11 12 13 14 15 16 17 18 19 20 21 22 23 24 25 26 27
000
ASUS41 KLWX 272311
RWRLWX

REGIONAL WEATHER ROUNDUP
NATIONAL WEATHER SERVICE BALTIMORE MD/WASHINGTON DC
700 PM EDT THU APR 27 2017

Note: "FAIR" indicates few or no clouds below 12,000 feet
with no significant weather and/or obstructions to visibility.
 TC=TEMPERATURE CELSIUS

 * =Non NWS site. Station does not report precipitation (e.g. rain,
    snow, etc.), thunder, or fog.

DCZ001-MDZ009-015-VAZ040>042-051-053>054-280000-
WASHINGTON METRO

CITY           SKY/WX    TMP DP  RH WIND       PRES   REMARKS
WASHINGTON NAT CLOUDY    77  63  61 S10       29.76S
DULLES         CLOUDY    78  58  49 S7        29.76R
ANDREWS AFB    PTCLDY    78  62  57 S12       29.77R
FT BELVOIR     PTCLDY    79  60  51 S7        29.76S
QUANTICO       CLOUDY    77  62  59 SW14      29.77S
COLLEGE PARK*  PTCLDY    80  61  51 S6        29.76S
LEESBURG*      MOSUNNY   81  61  50 S10       29.76F
MANASSAS*        N/A     78  61  55 S7        29.76S

$$

MDZ006>007-011-014-280000-
BALTIMORE METRO

CITY           SKY/WX    TMP DP  RH WIND       PRES   REMARKS
BWI AIRPORT    MOCLDY    75  61  61 SE8       29.76F
MD SCIENCE CTR   N/A     78  57  48 MISG      29.77
MARTIN STATE   MOCLDY    73  66  78 SE13      29.79S
ANNAPOLIS      CLEAR     73  58  59 S8        29.78S
FORT MEADE*    CLEAR     73  61  64 SE6       29.79S

$$

MDZ012-015-019>023-280000-
MARYLAND EASTERN SHORE

CITY           SKY/WX    TMP DP  RH WIND       PRES   REMARKS
OCEAN CITY     CLEAR     64  60  87 SW9G18    29.86S
SALISBURY      CLEAR     75  64  68 S13G21    29.83S
BAY BRIDGE AP* PTCLDY    75  59  57 S13       29.78S
CAMBRIDGE*     CLEAR     75  64  69 S15G21    29.81S
EASTON*        PTCLDY    81  57  44 S13G18    29.84S

$$

MDZ017>025-280000-
SOUTHERN MARYLAND

CITY           SKY/WX    TMP DP  RH WIND       PRES   REMARKS
PATUXENT RIVER MOCLDY    70  63  78 SE9       29.80R
ST INIGOES     PTCLDY    75  60  59 SE8       29.80R
LEONARDTOWN*   CLEAR     79  55  44 S5        29.81S

$$

MDZ003>005-280000-
NORTH CENTRAL MARYLAND

CITY           SKY/WX    TMP DP  RH WIND       PRES   REMARKS
FREDERICK*     SUNNY     82  63  51 S8G16     29.77S
HAGERSTOWN APT CLOUDY    80  58  46 S14G22    29.73R
WESTMINSTER*   MOSUNNY   79  66  65 SE9G20    29.77F

$$

MDZ501>502-280000-
WESTERN MARYLAND

CITY           SKY/WX    TMP DP  RH WIND       PRES   REMARKS
OAKLAND*       PTSUNNY   61  54  77 W8G18     29.81S
CUMBERLAND*    CLOUDY    79  54  41 S3        29.73S

$$

VAZ025>031-280000-
SHENANDOAH VALLEY

CITY           SKY/WX    TMP DP  RH WIND       PRES   REMARKS
WINCHESTER*    MOSUNNY   75  55  50 S13       29.74S
FRONT ROYAL*   MOSUNNY   77  57  50 S6        29.73S
LURAY*         MOSUNNY   77  57  50 S8        29.76S
NEW MARKET*    CLOUDY    77  56  48 S8        29.74S
STAUNTON*      PTSUNNY   74  58  55 S9G17     29.81R
WAYNESBORO*    PTSUNNY   73  59  61 S17G25    29.82R

$$

WVZ021-048>050-054>055-280000-
EASTERN WEST VIRGINIA PANHANDLE

CITY           SKY/WX    TMP DP  RH WIND       PRES   REMARKS
MARTINSBURG    CLOUDY    78  57  48 S10       29.72S
PETERSBURG*    CLOUDY    80  58  46 S10       29.72R

$$

VAZ036>039-050-280000-
CENTRAL FOOTHILLS

CITY           SKY/WX    TMP DP  RH WIND       PRES   REMARKS
CHARLOTTESVILL CLOUDY    79  56  45 S15G23    29.78R
CULPEPER*      CLOUDY    80  60  51 S6        29.78R
ORANGE*        PTSUNNY   77  55  47 SW10G18   29.79R
GORDONSVILLE*  CLOUDY    78  58  50 S14G23    29.78S
WARRENTON*     CLOUDY    80  55  42 S6G16     29.77S

$$

VAZ055>057-280000-
NORTH AND CENTRAL PIEDMONT

CITY           SKY/WX    TMP DP  RH WIND       PRES   REMARKS
FREDERICKSBRG* MOSUNNY   80  61  51 S8        29.78R
STAFFORD*      CLOUDY    78  58  49 S8G16     29.81S

$$

NCZ024-NYZ072-PAZ021-071-VAZ022-071-280000-
OTHER REGIONAL OBSERVATIONS

CITY           SKY/WX    TMP DP  RH WIND       PRES   REMARKS
NEW YORK CITY  CLOUDY    62  57  83 MISG      29.91F
PHILADELPHIA   MOCLDY    76  63  64 SE13      29.80S
PITTSBURGH     MOSUNNY   74  58  57 S15G28    29.67R
ROANOKE        HVY RAIN  67  59  75 SW10      29.89R
RICHMOND       CLOUDY    78  60  53 SW20      29.82R
RALEIGH        CLOUDY    76  59  55 SW9       29.87S

$$

ANZ530>537-280000-
MARINE OBSERVATIONS

STATION/POSITION TIME  TEMP    WIND        PRES
                       AIR SEA DIR/SP/G
                 (UTC) (F)     (DEG/KT/KT) (MB)
THOMAS PT LIGHT  2300   69 58  160/ 16/ 16   N/A
BALT KEY BRIDGE  2248   73     150/ 15/ 17 1008.0F
COVE POINT       2248   66     180/ 18/ 22 1009.6F
LEWISETTA        2248   79 65  200/  7/ 11 1008.9S
SOLOMONS ISLAND  2248          130/ 12/ 14   N/A
PINEY POINT      2248          190/  9/  9   N/A

$$





USA.gov is the U.S. government's official web portal to all federal, state and local government web resources and services.